Wind_Speed
11 12 12 11 10 11 12 11 11 11 10 9 9 12 11 10 6 6 3 3 6 5 10 9 7 7 7 6 7 5 6 5 6 6 7 4 8 4 5 3 3 7 6 7 3 5 11 6 6 6 5 4 8 8
12 13 13 12 11 11 11 11 10 10 9 9 9 11 13 12 9 6 3 2 4 6 7 14 15 15 18 17 8 4 4 4 4 5 2 3 5 3 9 8 5 8 5 7 4 4 5 4 8 6 7 7 7 9
12 14 12 11 12 12 12 11 10 10 9 9 10 12 16 15 13 9 4 4 2 3 8 10 9 12 22 28 20 7 6 3 2 3 5 3 5 3 8 10 6 2 2 4 4 12 6 5 6 7 10 8 9 9
14 12 11 12 13 12 12 11 11 11 10 10 10 12 15 17 15 13 9 7 3 5 4 1 1 5 4 12 22 28 15 3 5 4 5 5 4 1 2 4 4 6 0 3 9 12 9 7 6 6 6 6 8 9
12 11 12 14 13 13 13 11 10 11 10 10 10 12 15 17 15 12 11 14 12 3 4 8 24 18 11 20 17 19 20 15 7 6 6 7 2 4 2 3 6 5 6 7 8 4 4 6 6 7 7 6 7 7
12 13 13 13 14 14 14 12 10 10 10 8 8 11 15 17 15 5 3 7 19 10 3 4 5 6 4 5 13 16 11 9 8 5 7 6 1 4 5 8 6 11 8 9 8 6 7 11 14 12 7 5 5 5
13 11 12 12 14 15 13 11 8 8 8 7 7 10 13 18 17 4 1 4 9 13 3 5 4 5 3 6 5 8 11 5 6 8 7 9 6 4 7 12 13 10 10 12 12 11 11 13 8 7 6 4 4 4
11 10 10 12 14 13 10 9 8 6 6 4 4 9 13 16 13 8 10 7 9 4 4 4 4 4 9 5 5 5 7 6 6 6 4 7 5 5 7 10 11 14 13 10 11 10 14 13 8 7 7 6 7 5
11 8 10 11 12 10 9 7 6 5 4 4 6 12 8 4 5 3 7 7 14 3 3 3 4 2 5 4 4 6 5 6 4 6 8 5 9 7 9 13 14 13 9 11 11 12 11 10 11 12 11 11 10 6
8 10 10 9 10 9 7 7 6 6 6 10 9 4 3 6 9 12 5 3 3 3 3 4 5 5 3 5 7 6 5 6 5 8 4 6 12 15 14 10 8 11 13 13 14 15 13 9 9 12 14 12 10 7
8 8 8 8 8 7 6 6 8 7 9 5 4 2 4 15 7 2 3 4 4 4 5 6 12 10 4 5 4 5 4 5 6 6 6 6 8 8 5 4 4 6 9 12 15 17 15 10 8 9 9 7 7 7
9 6 5 7 7 6 5 8 10 12 6 6 4 6 7 4 3 4 4 4 5 5 6 7 7 8 5 4 5 4 5 5 6 8 5 7 4 8 6 2 3 5 8 9 9 12 12 12 11 8 6 8 10 13
7 7 6 6 6 5 6 8 16 16 8 4 4 4 4 4 6 5 7 4 4 4 5 7 6 5 5 6 4 4 6 7 4 6 7 3 9 7 4 2 3 4 6 7 5 4 9 11 12 10 9 10 12 13
8 8 7 6 5 5 3 4 16 17 7 3 4 4 5 5 5 5 6 7 4 3 4 6 5 5 4 7 4 6 6 2 8 14 13 6 8 6 3 1 3 4 5 6 7 6 3 8 9 10 13 14 16 15
10 8 8 7 4 4 2 4 12 11 6 3 4 5 6 6 5 4 4 5 3 4 4 4 4 4 6 4 5 6 6 6 7 13 6 9 8 5 4 3 2 3 4 4 5 6 5 5 8 10 13 14 16 17
8 5 7 4 3 3 2 5 6 4 3 3 5 4 5 5 9 6 4 4 2 4 3 5 4 3 6 5 7 10 8 7 7 4 6 8 8 6 3 1 2 3 5 5 4 5 5 3 7 11 13 15 18 20
7 5 7 3 2 3 4 5 5 4 4 4 4 6 7 4 4 2 1 2 5 2 3 2 4 8 4 6 11 7 10 4 7 7 6 6 5 4 3 2 3 4 5 6 7 5 4 3 3 7 10 15 17 21
6 6 6 4 1 2 5 7 3 4 6 5 4 7 8 6 4 3 2 2 2 2 3 1 4 3 4 6 10 6 5 6 6 7 7 7 6 4 3 2 1 3 4 5 6 7 7 4 4 5 9 12 15 19
6 6 6 2 1 3 2 5 4 3 4 2 5 6 5 4 4 3 4 3 2 3 3 2 4 2 6 1 2 5 8 8 8 8 7 7 5 4 2 1 1 3 3 4 5 6 6 6 7 4 7 13 13 17
7 6 6 4 0 1 2 2 3 2 3 2 3 5 5 5 4 5 5 4 2 1 3 4 4 3 2 8 4 5 6 8 8 8 7 6 5 3 2 3 3 4 4 3 2 4 3 4 3 4 7 10 9 14
5 5 7 7 3 3 2 2 3 3 2 3 5 7 5 4 4 8 8 7 5 4 4 5 5 7 1 9 7 3 6 7 6 5 6 6 4 1 2 1 2 3 4 4 4 1 5 3 1 4 9 11 10 15
5 10 5 7 3 4 3 5 3 2 2 2 2 4 4 6 9 10 9 10 8 9 12 11 9 3 5 11 5 4 8 6 4 5 2 3 4 4 4 4 4 4 3 5 6 4 4 3 1 5 8 12 9 11
7 6 3 4 4 5 3 8 4 4 3 2 4 4 4 5 5 6 6 9 12 11 10 12 13 16 11 9 8 9 8 7 6 5 4 5 5 7 8 9 8 5 5 4 5 6 5 1 1 4 8 13 14 11
5 4 4 5 6 3 3 4 4 3 4 6 5 6 7 5 4 5 10 12 9 8 11 13 12 11 10 7 9 9 10 10 7 7 7 6 7 9 12 13 10 10 10 8 7 5 4 5 3 4 7 9 15 17
3 4 4 5 5 4 5 4 7 6 6 8 10 7 4 4 6 10 11 8 9 9 9 10 11 12 11 10 11 11 15 12 8 8 9 10 12 13 12 11 13 13 12 9 11 7 5 5 7 8 7 10 12 16
4 6 6 7 5 5 6 3 5 10 7 5 6 3 2 4 6 6 5 7 8 6 8 8 8 9 10 7 8 8 10 11 12 7 11 11 12 11 9 7 8 9 12 11 12 10 6 7 9 11 11 11 14 15
4 6 5 4 4 3 4 5 4 4 5 6 4 5 4 5 5 3 1 3 4 5 7 6 6 6 5 6 8 8 8 10 12 10 6 6 10 11 13 10 9 8 5 8 8 8 6 7 10 13 13 11 16 18
5 4 10 8 6 7 10 7 5 6 6 5 3 7 4 5 2 1 2 5 7 9 9 8 7 7 6 5 4 4 6 7 10 11 11 12 12 11 10 8 8 8 8 6 4 4 5 6 9 16 17 17 18 16
5 4 5 9 8 6 6 7 7 5 5 6 7 6 5 3 2 2 3 8 10 10 7 6 6 3 2 2 3 4 4 5 6 10 12 9 9 13 14 7 6 6 7 11 9 6 5 5 8 11 15 18 19 18
7 8 6 8 7 7 7 8 7 7 7 7 9 9 7 7 6 5 6 8 8 7 10 9 7 6 5 5 5 7 7 6 6 7 8 9 11 5 2 5 3 4 5 10 8 8 10 8 7 8 12 16 18 19
2 5 7 9 7 8 9 10 9 10 9 10 10 11 13 11 13 17 17 17 18 18 17 13 16 16 14 12 9 8 8 11 8 6 6 8 7 5 5 3 3 1 4 8 10 11 12 11 10 14 16 18 18 20
5 10 5 5 5 4 6 5 6 5 5 9 12 11 13 12 16 12 22 23 22 14 22 23 16 18 22 20 18 18 15 15 11 9 7 7 6 6 6 7 6 5 4 5 8 10 12 10 11 14 17 20 21 21
3 4 4 3 3 4 5 5 4 3 5 5 6 9 10 9 9 7 13 17 22 23 23 24 24 23 22 21 21 20 19 19 19 17 16 13 12 10 9 8 7 7 6 6 7 10 12 11 11 14 16 19 20 19
Wind_Direction
315 316 317 314 309 301 300 303 305 299 291 280 249 225 225 229 230 209 279 253 274 282 288 269 264 263 245 247 272 39 270 192 251 245 253 205 266 152 246 287 245 232 242 223 238 265 249 115 131 246 25 355 358 350
305 309 310 311 310 309 307 301 299 298 290 277 263 234 218 226 227 218 256 252 248 250 290 303 269 263 258 269 298 248 329 327 349 275 247 323 226 229 256 232 164 244 279 306 287 350 66 172 301 340 347 335 348 338
302 304 307 310 312 313 311 305 296 292 284 275 264 235 216 218 222 218 224 212 239 270 274 244 245 259 237 238 236 254 230 252 230 355 322 322 265 316 243 238 295 161 352 258 312 246 305 345 331 309 302 304 320 322
301 300 303 307 308 306 305 304 297 288 280 271 268 239 223 214 215 219 225 226 226 286 283 332 217 251 228 223 222 228 252 246 294 275 276 280 278 349 303 340 291 24 37 270 254 268 300 89 27 12 340 311 303 306
297 297 298 299 304 307 304 296 294 291 281 271 266 237 219 213 211 219 238 239 225 274 312 306 300 277 252 236 226 221 230 238 252 249 236 251 295 249 193 274 248 198 253 251 287 44 328 328 357 346 322 323 324 309
291 293 297 301 306 308 308 297 290 289 284 278 262 228 215 207 196 183 261 243 231 202 274 286 354 260 204 231 219 210 207 211 225 232 243 251 228 267 260 259 264 263 247 272 279 297 281 293 297 285 279 295 317 311
284 290 296 308 308 305 299 297 285 282 283 273 250 213 207 198 182 209 347 82 182 170 244 277 252 149 185 155 163 190 199 206 222 224 235 249 209 213 257 259 254 265 263 271 275 283 282 263 284 282 220 233 207 290
275 291 303 308 308 300 285 278 271 262 272 256 226 199 196 189 203 251 235 235 148 212 243 264 267 231 187 179 155 170 176 201 209 239 230 234 166 233 250 255 256 258 270 280 275 268 260 277 270 222 217 211 228 248
275 292 291 299 305 295 288 270 253 234 232 193 154 152 142 164 195 208 207 199 185 246 280 238 270 85 176 208 110 181 186 193 190 219 224 218 222 221 240 246 254 259 260 282 288 281 281 268 258 229 234 232 246 234
267 279 290 298 310 295 278 266 218 202 185 164 137 169 190 198 174 139 124 158 187 212 236 253 255 253 244 172 187 179 192 227 194 208 173 230 245 251 242 269 284 275 268 269 264 260 255 250 232 222 228 237 241 244
250 273 288 301 304 309 266 238 195 182 169 185 194 204 125 148 156 192 192 193 176 228 210 231 233 240 187 250 208 209 194 194 231 177 213 222 237 217 172 224 267 288 277 264 253 255 261 265 246 231 234 231 223 198
242 255 278 294 306 302 274 221 199 191 193 195 179 137 147 195 208 212 193 188 210 227 192 223 208 213 219 243 235 194 238 196 241 138 214 241 187 143 169 200 321 320 314 300 258 244 241 239 232 233 222 195 192 182
233 247 268 286 298 297 278 235 206 206 196 187 212 195 182 159 224 218 188 193 205 208 200 193 181 186 191 223 211 230 220 230 121 205 216 247 136 156 166 238 295 331 352 359 356 267 224 222 221 215 201 187 173 169
228 242 263 280 296 298 270 244 203 199 195 226 179 226 201 188 229 199 219 205 210 233 226 198 167 202 191 186 220 218 213 178 229 222 219 171 163 161 185 234 287 332 336 3 11 1 221 215 219 209 202 184 175 174
221 242 256 270 276 290 259 172 171 179 189 234 204 222 222 227 245 235 273 279 226 270 257 207 240 218 187 224 207 231 194 223 213 221 227 117 143 153 176 201 238 339 348 337 348 3 8 224 215 211 205 188 177 174
221 246 241 226 248 270 269 191 187 201 229 229 224 239 235 257 240 218 243 244 22 327 286 257 226 230 219 221 196 210 227 220 188 147 117 137 145 151 163 210 269 300 305 319 342 342 352 331 230 217 205 197 185 175
193 221 204 212 279 261 212 161 172 217 235 213 228 236 241 273 270 138 101 33 339 263 211 263 238 212 248 220 217 215 223 217 125 130 133 123 145 159 169 227 266 278 286 293 301 311 328 316 238 199 196 194 190 182
216 195 211 228 294 161 163 192 232 224 224 223 224 234 226 240 214 174 141 77 345 353 293 324 303 248 261 229 214 150 155 128 124 129 125 130 135 138 145 100 35 313 296 283 289 297 294 293 244 215 197 182 189 183
188 187 199 194 174 164 207 199 218 248 239 242 219 245 236 228 230 163 152 137 238 274 289 213 255 220 258 305 248 156 154 154 142 139 128 137 144 143 147 133 54 19 347 304 287 290 294 298 303 270 200 173 191 185
198 205 198 193 103 185 237 213 220 244 242 207 212 226 235 235 185 195 195 175 188 169 248 231 230 208 233 319 292 172 154 142 146 151 151 148 148 159 86 10 16 1 4 358 291 270 238 250 244 216 193 190 197 187
179 185 181 178 192 211 281 284 242 236 254 247 270 218 224 196 220 227 224 184 195 203 200 240 256 295 146 271 262 164 153 165 171 174 156 159 162 203 238 236 342 347 1 355 334 307 260 274 100 182 169 181 202 197
165 171 165 191 203 198 251 219 257 317 244 269 269 250 241 238 237 234 229 217 231 226 225 230 238 266 270 249 174 197 164 156 151 126 146 144 213 224 263 293 296 318 355 356 345 316 316 291 220 158 179 164 181 190
163 177 192 190 220 204 244 169 226 199 221 220 193 213 216 223 231 205 226 232 235 234 234 225 230 221 240 250 207 202 200 197 200 218 216 243 258 261 260 261 264 274 294 318 331 331 292 305 221 146 158 157 162 166
170 200 214 208 205 237 211 210 212 219 226 224 227 235 233 227 182 226 242 237 229 232 228 223 223 221 218 193 237 234 216 220 239 239 244 257 268 266 255 258 245 253 269 280 290 308 266 231 208 165 156 181 174 171
186 226 182 236 207 224 216 218 211 215 233 219 237 238 235 203 238 247 252 243 232 225 228 220 220 226 222 214 224 228 229 239 246 246 249 251 262 264 260 239 242 254 268 256 263 254 230 208 199 193 178 184 184 178
220 207 199 203 196 212 205 226 215 223 232 227 230 244 216 240 247 250 247 243 221 211 215 220 219 219 225 240 241 231 229 218 230 234 245 249 239 249 248 259 264 257 255 245 248 246 224 230 209 198 187 195 190 187
240 213 197 230 264 208 241 246 258 246 224 224 228 212 211 226 239 246 115 229 202 189 172 177 185 192 175 171 190 203 211 218 224 233 253 238 247 242 244 252 270 288 300 261 241 243 235 193 187 190 197 195 187 189
246 244 218 203 215 226 248 248 235 224 220 213 216 212 224 221 250 81 213 164 142 144 137 128 120 127 137 134 151 185 211 212 224 234 241 246 237 233 232 246 261 267 239 205 209 226 222 203 172 183 186 190 189 187
224 232 243 242 229 230 227 223 236 229 223 216 228 227 236 238 297 217 178 174 170 169 170 175 169 182 213 209 229 228 224 238 228 215 225 238 218 209 207 228 266 268 228 207 211 208 213 206 192 176 175 176 173 168
234 205 228 221 207 229 226 213 252 255 250 245 254 259 250 236 239 226 179 191 208 218 222 225 239 236 244 251 252 250 251 249 251 263 250 235 239 222 156 236 244 251 218 200 185 172 171 170 165 162 160 155 154 145
223 200 237 246 248 244 252 261 260 259 259 261 257 256 261 268 265 247 232 236 243 243 246 248 248 244 242 242 241 240 246 239 235 237 248 259 268 257 254 255 220 207 187 199 184 176 172 175 174 168 164 164 169 163
212 214 231 241 263 293 332 277 266 260 258 245 249 257 264 259 253 257 247 244 237 237 239 240 244 243 241 238 233 236 238 247 240 219 235 247 247 241 255 249 229 210 188 188 185 184 180 186 181 181 176 174 177 183
221 226 218 270 248 239 229 208 224 259 237 246 243 240 237 239 253 263 257 236 239 240 242 244 242 242 242 241 235 227 224 232 235 240 241 240 251 266 266 261 258 232 212 218 207 211 204 202 198 195 197 196 196 192
Height
790 789 787 785 784 783 781 780 780 779 779 780 780 781 783 785 786 786 786 786 784 770 757 756 754 751 747 746 743 735 736 731 727 731 718 711 716 705 718 711 714 720 722 719 719 729 737 694 705 716 709 697 700 701
787 786 784 782 781 779 778 777 776 776 776 776 777 778 781 783 784 785 786 785 785 784 762 759 756 753 752 748 748 740 741 740 732 731 723 715 719 715 713 721 713 730 710 719 709 710 699 697 698 694 696 702 702 702
783 782 781 779 778 777 775 774 774 773 772 773 774 774 776 779 781 783 783 783 784 779 758 750 740 741 744 746 749 747 734 735 736 739 733 725 731 720 720 717 712 717 718 717 719 699 696 697 698 698 699 701 701 699
780 778 777 776 775 773 772 771 770 770 769 769 770 771 773 776 778 780 781 782 783 780 764 736 738 738 738 739 741 742 739 741 740 738 731 726 727 724 717 723 720 721 723 718 714 704 700 700 705 703 702 701 701 698
776 775 774 772 771 769 768 768 767 767 766 766 766 767 770 773 775 778 779 778 780 783 767 749 738 729 732 734 736 739 740 741 740 737 734 730 720 728 723 724 718 713 714 719 712 709 710 705 701 702 704 702 701 700
772 771 770 769 768 766 765 764 764 763 763 763 762 763 766 770 773 777 776 773 774 778 777 752 728 727 728 730 731 733 735 737 739 735 730 721 721 725 722 721 708 702 702 702 709 703 707 706 703 700 702 701 700 699
768 767 766 765 764 762 761 760 760 760 761 760 760 761 764 767 770 772 768 772 771 776 774 758 727 721 726 727 727 730 732 733 734 731 726 721 719 726 719 722 706 702 700 700 700 701 706 699 698 694 698 699 703 700
764 763 763 762 760 758 757 757 757 757 758 758 758 760 763 766 769 770 769 770 772 774 768 751 728 722 721 718 725 725 729 732 730 723 717 718 716 719 718 704 701 699 697 697 696 695 694 692 693 693 696 697 697 697
760 760 759 758 757 755 754 753 754 755 756 757 758 760 763 766 767 765 766 768 770 773 759 743 729 713 715 710 713 722 722 727 715 721 713 709 710 715 701 700 696 693 695 695 694 693 691 690 690 691 693 692 693 692
756 756 755 754 753 752 751 751 751 753 755 757 759 760 759 759 761 763 765 768 769 765 762 744 724 722 713 707 711 712 714 708 717 706 700 708 700 687 687 687 694 696 695 694 695 693 688 689 687 686 686 686 686 687
751 751 751 751 750 749 749 749 750 752 754 756 755 755 756 757 760 760 757 757 759 755 743 729 721 719 711 712 702 703 698 695 705 693 700 692 692 681 690 693 694 694 693 690 688 685 683 680 680 681 682 683 685 688
746 746 746 746 746 746 746 747 748 750 750 752 752 753 755 755 754 752 748 748 747 736 716 715 714 718 712 712 708 704 701 694 699 685 693 693 677 686 689 690 690 689 687 682 679 679 679 679 678 678 679 681 683 687
742 743 743 743 742 741 743 743 745 747 749 750 749 748 748 747 745 740 735 733 728 712 708 708 710 709 714 711 705 702 703 694 680 687 688 674 681 685 687 688 687 685 683 680 676 675 675 675 676 676 677 681 685 689
738 740 740 740 739 738 737 739 741 744 747 746 743 740 740 733 727 720 714 709 704 705 702 699 699 704 700 705 693 698 682 681 687 687 681 666 680 684 686 686 685 683 682 680 678 675 673 673 674 676 678 681 684 689
736 737 737 736 736 736 736 736 739 742 742 740 737 730 724 711 711 706 705 705 702 704 702 700 698 697 698 695 686 681 687 684 672 674 660 669 682 684 685 686 685 683 681 680 678 676 673 672 672 675 677 680 683 687
733 735 735 733 733 733 734 735 737 739 737 734 730 724 716 714 704 705 709 709 709 709 706 701 698 700 691 680 679 678 673 672 664 665 667 678 682 684 685 685 685 684 682 679 678 677 674 673 671 673 677 679 682 686
731 732 730 731 731 731 732 734 735 734 731 725 719 714 707 709 704 710 715 716 716 713 710 708 705 696 673 671 671 659 664 657 662 668 671 678 681 683 685 685 685 684 682 680 678 677 676 675 673 673 674 676 679 685
729 728 729 729 729 729 729 731 730 725 719 715 714 704 700 700 706 712 714 717 717 715 711 706 705 693 687 670 663 660 660 662 664 670 674 680 682 684 684 684 684 683 681 680 678 676 674 673 672 671 673 675 679 683
725 726 727 728 727 727 726 726 726 717 713 709 707 705 702 702 706 709 713 714 717 716 714 709 702 697 684 661 660 657 661 663 669 671 677 680 682 683 683 683 681 681 680 678 677 673 671 672 672 671 673 677 678 681
722 724 725 726 727 726 723 720 720 716 709 705 707 704 702 697 701 706 709 710 713 713 711 705 692 685 685 678 664 659 659 662 667 672 675 677 679 681 681 681 679 678 676 676 675 677 673 673 674 676 677 679 681 681
721 722 723 725 725 725 724 719 715 712 708 704 693 693 694 699 699 696 696 702 706 702 701 695 687 682 678 680 670 665 666 665 664 665 670 673 677 677 677 677 677 675 674 673 672 673 675 672 674 678 680 681 681 681
718 720 721 722 721 722 720 716 713 710 709 704 703 696 691 689 686 684 683 684 683 678 677 677 678 681 679 676 668 670 670 671 671 673 676 677 674 673 673 673 674 673 673 674 673 671 670 672 674 678 679 680 681 680
717 718 718 718 718 716 710 709 708 705 703 700 694 692 689 683 678 676 674 666 664 665 665 666 669 672 674 672 671 671 672 671 669 670 670 671 672 673 673 673 673 673 672 671 673 672 671 672 673 676 678 680 680 683
716 715 711 708 706 705 700 698 696 694 689 685 680 675 670 668 669 669 661 656 653 658 657 658 659 662 665 669 666 664 666 669 668 668 669 669 668 668 669 669 669 670 669 670 671 669 671 671 672 673 676 678 679 683
714 711 709 711 698 699 692 685 683 681 679 673 672 668 665 665 662 656 651 645 647 649 649 648 651 651 649 652 655 657 661 663 662 662 664 665 666 666 663 665 665 666 665 666 666 665 668 670 671 672 672 675 676 679
711 700 704 688 685 688 679 675 674 672 670 670 669 665 664 663 660 650 639 638 639 643 644 644 644 645 646 647 649 651 653 659 661 660 659 660 661 661 659 658 658 658 659 659 661 661 664 665 668 670 670 672 676 678
704 685 685 685 680 680 677 674 672 672 670 667 662 663 661 659 649 638 640 640 640 642 644 644 644 643 645 650 653 654 656 659 659 657 656 658 658 658 659 658 656 655 657 658 659 659 659 662 665 667 670 672 673 674
683 679 679 676 680 676 673 669 667 665 661 658 660 655 652 645 639 636 638 640 642 645 645 647 647 647 648 650 651 653 654 654 654 655 655 655 655 655 655 656 656 656 657 657 657 658 658 658 659 664 666 669 673 675
684 681 678 678 675 672 670 667 658 651 649 648 648 644 642 641 640 639 641 642 643 645 646 647 648 649 649 649 650 650 651 650 647 647 648 645 644 646 648 651 652 651 652 653 654 656 657 657 658 660 664 668 672 674
673 673 673 668 673 666 655 654 649 646 644 644 644 641 641 639 639 640 640 642 642 642 642 643 643 645 646 647 647 647 647 647 647 646 643 642 641 641 644 647 648 649 649 650 652 654 655 657 658 660 663 667 670 672
665 667 666 662 655 651 650 649 646 645 645 644 641 640 636 635 634 634 635 637 638 638 638 637 638 640 642 644 644 644 643 643 644 646 647 646 646 646 647 646 647 647 647 648 649 652 653 655 655 658 662 665 669 671
661 663 664 661 655 653 654 650 647 644 642 641 637 635 632 630 628 626 626 627 627 627 627 628 628 629 632 634 638 640 641 640 639 642 645 645 645 645 645 645 644 645 646 648 650 649 652 652 654 656 658 663 667 670
664 664 665 666 661 655 649 652 650 646 642 637 633 632 633 635 629 619 615 615 615 615 616 617 619 621 624 627 629 632 636 636 637 639 641 642 643 644 644 644 643 644 645 646 647 647 649 651 652 654 657 659 662 667